GW0126 Weather Reports


Display with metric or nautical units.
time (UTC)temp
F
wind
direction
speed
MPH
gust
MPH
rain 1hr
in
rain 24hr
in
rain mn
in
humidity
%
barometer
mb
20260510213532 56 211 0.0 2.0 0.00 0.00 0.00 74 1007.4
20260510212002 56 258 0.0 2.0 0.00 0.00 0.00 74 1007.6
20260510210432 57 263 0.0 1.0 0.00 0.00 0.00 72 1007.9
20260510205412 57 263 0.0 1.0 0.00 0.00 0.00 71 1007.9
20260510204902 58 263 0.0 1.0 0.00 0.00 0.00 71 1008.3
20260510203842 58 262 0.0 0.0 0.00 0.00 0.00 70 1008.1
20260510203332 58 262 0.0 1.0 0.00 0.00 0.00 69 1008.0
20260510202822 59 262 0.0 0.0 0.00 0.00 0.00 68 1008.2
20260510202311 59 262 0.0 1.0 0.00 0.00 0.00 68 1008.2
20260510201802 59 262 0.0 0.0 0.00 0.00 0.00 67 1008.5
20260510201330 59 262 0.0 0.0 0.00 0.00 0.00 67 1008.6
20260510195211 59 262 0.0 0.0 0.00 0.00 0.00 66 1008.5
20260510194701 60 262 0.0 0.0 0.00 0.00 0.00 66 1008.7
20260510194151 59 262 0.0 1.0 0.00 0.00 0.00 65 1008.4
20260510193720 59 262 0.0 1.0 0.00 0.00 0.00 65 1008.6
20260510192703 59 262 0.0 0.0 0.00 0.00 0.00 66 1008.8
20260510192111 58 262 0.0 0.0 0.00 0.00 0.00 67 1008.6
20260510191051 59 262 0.0 0.0 0.00 0.00 0.00 65 1008.6
20260510190541 59 262 0.0 0.0 0.00 0.00 0.00 64 1008.5
20260510190031 60 262 0.0 0.0 0.00 0.00 0.00 63 1008.6
20260510185521 60 262 0.0 0.0 0.00 0.00 0.00 62 1008.6
20260510185011 61 262 0.0 0.0 0.00 0.00 0.00 61 1008.5
20260510184501 61 262 0.0 0.0 0.00 0.00 0.00 62 1008.8
20260510184117 62 262 0.0 0.0 0.00 0.00 0.00 60 1008.7
20260510183441 62 262 0.0 0.0 0.00 0.00 0.00 60 1008.8
20260510182421 63 262 0.0 0.0 0.00 0.00 0.00 58 1008.6
20260510181911 64 262 0.0 0.0 0.00 0.00 0.00 58 1008.5
20260510181401 64 262 0.0 0.0 0.00 0.00 0.00 57 1008.5
20260510175321 65 255 0.0 1.0 0.00 0.00 0.00 55 1008.8
20260510174852 65 231 0.0 0.0 0.00 0.00 0.00 55 1008.6
20260510174301 65 250 0.0 2.0 0.00 0.00 0.00 54 1008.7
20260510172809 66 241 1.0 1.0 0.00 0.00 0.00 52 1008.8
20260510172221 66 209 0.0 1.0 0.00 0.00 0.00 52 1008.9
20260510171714 66 230 0.0 1.0 0.00 0.00 0.00 53 1009.1
20260510171201 66 250 0.0 1.0 0.00 0.00 0.00 52 1009.0
20260510165709 67 217 0.0 1.0 0.00 0.00 0.00 51 1009.2
20260510165121 67 248 0.0 0.0 0.00 0.00 0.00 49 1009.1
20260510164611 68 237 0.0 0.0 0.00 0.00 0.00 50 1009.3
20260510163041 69 221 0.0 2.0 0.00 0.00 0.00 47 1009.5
20260510162531 69 243 0.0 1.0 0.00 0.00 0.00 48 1009.5
20260510160451 71 237 0.0 0.0 0.00 0.00 0.00 46 1009.8
20260510155941 71 168 0.0 1.0 0.00 0.00 0.00 45 1009.5
20260510155431 72 224 0.0 1.0 0.00 0.00 0.00 44 1009.9
20260510154921 71 202 1.0 2.0 0.00 0.00 0.00 45 1010.0
20260510153901 70 226 0.0 0.0 0.00 0.00 0.00 46 1010.0
20260510153354 70 258 0.0 1.0 0.00 0.00 0.00 47 1010.2
20260510152334 68 215 0.0 1.0 0.00 0.00 0.00 47 1010.2
20260510151311 71 180 0.0 1.0 0.00 0.00 0.00 44 1010.4
20260510150801 69 275 0.0 1.0 0.00 0.00 0.00 46 1010.4
20260510150332 70 213 1.0 2.0 0.00 0.00 0.00 46 1010.4
20260510143701 75 242 1.0 2.0 0.00 0.00 0.00 41 1010.7
20260510143150 74 215 0.0 1.0 0.00 0.00 0.00 40 1010.6
20260510142640 74 139 2.0 2.0 0.00 0.00 0.00 39 1011.0
20260510142130 72 231 0.0 1.0 0.00 0.00 0.00 41 1010.9
20260510141620 73 207 0.0 1.0 0.00 0.00 0.00 41 1011.2
20260510141110 73 187 1.0 2.0 0.00 0.00 0.00 43 1011.2
20260510140639 73 197 0.0 2.0 0.00 0.00 0.00 41 1011.2
20260510140050 72 189 0.0 2.0 0.00 0.00 0.00 42 1010.9
20260510135540 72 196 2.0 3.0 0.00 0.00 0.00 43 1011.1
20260510135030 72 200 1.0 3.0 0.00 0.00 0.00 43 1011.5
20260510134559 72 205 0.0 2.0 0.00 0.00 0.00 42 1011.4
20260510134010 72 173 1.0 2.0 0.00 0.00 0.00 44 1011.5
20260510132952 72 170 1.0 3.0 0.00 0.00 0.00 45 1011.5
20260510132440 72 237 0.0 1.0 0.00 0.00 0.00 43 1011.5
20260510131930 72 197 0.0 1.0 0.00 0.00 0.00 46 1011.4
20260510131458 72 222 1.0 2.0 0.00 0.00 0.00 44 1011.7
20260510130910 72 243 1.0 1.0 0.00 0.00 0.00 46 1011.6
20260510130400 72 225 0.0 1.0 0.00 0.00 0.00 45 1011.7
20260510125850 72 261 1.0 2.0 0.00 0.00 0.00 45 1011.6
20260510125340 71 191 0.0 0.0 0.00 0.00 0.00 48 1011.8
20260510124908 71 174 1.0 2.0 0.00 0.00 0.00 47 1011.9
20260510124358 72 178 0.0 1.0 0.00 0.00 0.00 47 1011.8
20260510123810 71 210 0.0 0.0 0.00 0.00 0.00 47 1011.8
20260510123300 71 164 2.0 2.0 0.00 0.00 0.00 48 1011.9
20260510122832 70 182 0.0 3.0 0.00 0.00 0.00 48 1012.0
20260510122240 69 242 1.0 1.0 0.00 0.00 0.00 47 1012.0
20260510121730 70 166 2.0 3.0 0.00 0.00 0.00 48 1012.1
20260510121220 70 210 1.0 2.0 0.00 0.00 0.00 50 1012.0
20260510120200 71 172 0.0 4.0 0.00 0.00 0.00 50 1012.2
20260510114630 70 192 1.0 6.0 0.00 0.00 0.00 50 1012.4
20260510113610 70 169 2.0 3.0 0.00 0.00 0.00 48 1012.7
20260510113100 69 226 0.0 2.0 0.00 0.00 0.00 50 1012.7
20260510112628 69 175 1.0 4.0 0.00 0.00 0.00 53 1012.7
20260510112040 67 197 0.0 1.0 0.00 0.00 0.00 53 1012.8
20260510111020 66 241 0.0 1.0 0.00 0.00 0.00 55 1012.8
20260510110510 66 170 0.0 1.0 0.00 0.00 0.00 55 1013.2
20260510110000 66 224 0.0 2.0 0.00 0.00 0.00 55 1012.9
20260510105450 68 203 2.0 2.0 0.00 0.00 0.00 53 1012.9
20260510104940 68 143 2.0 3.0 0.00 0.00 0.00 52 1013.2
20260510104433 67 169 1.0 4.0 0.00 0.00 0.00 56 1013.1
20260510103920 68 192 0.0 2.0 0.00 0.00 0.00 53 1013.1
20260510103410 69 188 1.0 2.0 0.00 0.00 0.00 52 1013.1
20260510102900 68 196 0.0 1.0 0.00 0.00 0.00 54 1013.2
20260510101840 68 191 0.0 2.0 0.00 0.00 0.00 54 1013.4
20260510101330 68 193 2.0 4.0 0.00 0.00 0.00 53 1013.2
20260510100820 68 184 1.0 3.0 0.00 0.00 0.00 54 1013.4
20260510100310 67 194 1.0 3.0 0.00 0.00 0.00 52 1013.4
20260510095800 68 149 0.0 1.0 0.00 0.00 0.00 52 1013.5
20260510095328 68 177 1.0 2.0 0.00 0.00 0.00 53 1013.4
20260510094818 67 205 0.0 1.0 0.00 0.00 0.00 55 1013.4
20260510093720 67 158 2.0 2.0 0.00 0.00 0.00 52 1013.8
20260510093209 66 216 0.0 2.0 0.00 0.00 0.00 57 1014.0
20260510092703 66 194 1.0 1.0 0.00 0.00 0.00 57 1013.9
20260510092150 66 178 1.0 2.0 0.00 0.00 0.00 56 1013.9
20260510091640 65 183 0.0 2.0 0.00 0.00 0.00 57 1013.9
20260510090619 65 222 1.0 4.0 0.00 0.00 0.00 57 1013.8
20260510090109 65 203 0.0 1.0 0.00 0.00 0.00 57 1013.9
20260510084618 65 190 2.0 3.0 0.00 0.00 0.00 57 1014.1
20260510083519 65 217 0.0 1.0 0.00 0.00 0.00 58 1014.2
20260510083012 65 219 0.0 2.0 0.00 0.00 0.00 60 1014.0
20260510082538 64 178 1.0 3.0 0.00 0.00 0.00 59 1014.2
20260510081952 63 155 1.0 4.0 0.00 0.00 0.00 61 1014.4
20260510081518 64 140 3.0 4.0 0.00 0.00 0.00 60 1014.3
20260510080929 63 152 1.0 3.0 0.00 0.00 0.00 61 1014.1
20260510080419 63 193 1.0 4.0 0.00 0.00 0.00 61 1014.6
20260510075948 62 187 1.0 2.0 0.00 0.00 0.00 64 1014.4
20260510075359 62 243 1.0 1.0 0.00 0.00 0.00 63 1014.6
20260510074849 62 160 2.0 3.0 0.00 0.00 0.00 63 1014.8
20260510073829 61 168 2.0 2.0 0.00 0.00 0.00 64 1014.8
20260510073319 60 221 1.0 2.0 0.00 0.00 0.00 65 1014.8
20260510072809 60 189 0.0 2.0 0.00 0.00 0.00 69 1014.9
20260510072259 60 199 1.0 3.0 0.00 0.00 0.00 67 1015.0
20260510071239 59 182 3.0 4.0 0.00 0.00 0.00 69 1015.1
20260510070732 58 173 0.0 3.0 0.00 0.00 0.00 73 1014.9
20260510070219 57 190 1.0 2.0 0.00 0.00 0.00 75 1014.9
20260510064139 55 200 1.0 2.0 0.00 0.00 0.00 78 1014.8
20260510062609 53 202 0.0 1.0 0.00 0.00 0.00 82 1015.1
20260510062059 52 182 0.0 2.0 0.00 0.00 0.00 82 1015.2
20260510061549 52 204 0.0 1.0 0.00 0.00 0.00 85 1014.9
20260510061045 51 204 0.0 4.0 0.00 0.00 0.00 84 1015.2
20260510060529 51 198 1.0 1.0 0.00 0.00 0.00 86 1015.4
20260510054449 48 198 0.0 1.0 0.00 0.00 0.00 89 1015.3
20260510053429 48 216 0.0 1.0 0.00 0.00 0.00 90 1015.5
20260510052922 47 200 1.0 1.0 0.00 0.00 0.00 90 1015.3
20260510052409 47 202 0.0 1.0 0.00 0.00 0.00 91 1015.6
20260510051859 47 207 0.0 1.0 0.00 0.00 0.00 92 1015.3
20260510051349 46 198 0.0 1.0 0.00 0.00 0.00 93 1015.3
20260510050839 46 173 0.0 1.0 0.00 0.00 0.00 94 1015.3
20260510045900 45 156 1.0 1.0 0.00 0.00 0.00 97 1015.4
20260510045309 45 179 0.0 3.0 0.00 0.00 0.00 99 1015.4
20260510043739 42 214 0.0 0.0 0.00 0.00 0.00 99 1015.6
20260510043229 42 214 0.0 0.0 0.00 0.00 0.00 99 1015.5
20260510042756 41 214 0.0 0.0 0.00 0.00 0.00 99 1015.5
20260510041659 41 214 0.0 0.0 0.00 0.00 0.00 99 1015.5
20260510041149 40 214 0.0 0.0 0.00 0.00 0.00 99 1015.8
20260510040207 40 214 0.0 0.0 0.00 0.00 0.00 99 1015.8
20260510034559 40 214 0.0 0.0 0.00 0.00 0.00 99 1015.8
20260510032008 40 212 0.0 0.0 0.00 0.00 0.00 98 1016.3
20260510031501 40 212 0.0 0.0 0.00 0.00 0.00 98 1016.3
20260510025928 40 212 0.0 0.0 0.00 0.00 0.00 98 1016.3
20260510025418 40 212 0.0 0.0 0.00 0.00 0.00 98 1016.2
20260510024910 40 212 0.0 0.0 0.00 0.00 0.00 98 1016.1
20260510024358 40 212 0.0 0.0 0.00 0.00 0.00 98 1016.2
20260510022906 41 212 0.0 0.0 0.00 0.00 0.00 98 1016.0
20260510022318 41 212 0.0 0.0 0.00 0.00 0.00 98 1016.3
20260510021421 42 215 0.0 0.0 0.00 0.00 0.00 98 1016.2
20260510020238 41 173 0.0 0.0 0.00 0.00 0.00 98 1016.7
20260510014746 41 173 0.0 0.0 0.00 0.00 0.00 97 1016.7
20260510013301 41 173 0.0 0.0 0.00 0.00 0.00 97 1016.7
20260510012631 41 173 0.0 0.0 0.00 0.00 0.00 97 1016.7
20260510012118 41 173 0.0 0.0 0.00 0.00 0.00 97 1016.7
20260510011058 41 173 0.0 0.0 0.00 0.00 0.00 97 1017.1
20260510010038 41 173 0.0 0.0 0.00 0.00 0.00 97 1016.9
20260510003526 42 173 0.0 0.0 0.00 0.00 0.00 96 1017.5
20260510002941 42 173 0.0 0.0 0.00 0.00 0.00 96 1017.6
20260510002506 42 173 0.0 0.0 0.00 0.00 0.00 96 1017.5
20260510001918 42 173 0.0 0.0 0.00 0.00 0.00 96 1017.9
20260510000939 42 173 0.0 0.0 0.00 0.00 0.00 96 1017.9
20260509235838 42 173 0.0 0.0 0.00 0.00 0.00 96 1018.1
20260509235328 42 173 0.0 0.0 0.00 0.00 0.00 96 1018.0
20260509234818 43 173 0.0 0.0 0.00 0.00 0.00 96 1018.0
20260509234308 43 173 0.0 0.0 0.00 0.00 0.00 96 1018.1
20260509233758 43 173 0.0 0.0 0.00 0.00 0.00 96 1018.3
20260509233248 43 173 0.0 0.0 0.00 0.00 0.00 96 1018.1
20260509232741 43 173 0.0 0.0 0.00 0.00 0.00 95 1018.3
20260509232228 43 173 0.0 0.0 0.00 0.00 0.00 95 1018.3
20260509230736 43 173 0.0 0.0 0.00 0.00 0.00 95 1018.5
20260509230147 43 173 0.0 0.0 0.00 0.00 0.00 95 1018.5
20260509225128 43 173 0.0 0.0 0.00 0.00 0.00 95 1018.5
20260509224618 44 173 0.0 0.0 0.00 0.00 0.00 95 1018.7
20260509224107 44 173 0.0 0.0 0.00 0.00 0.00 95 1018.9
20260509222616 44 173 0.0 0.0 0.00 0.00 0.00 94 1018.7
20260509222106 44 173 0.0 0.0 0.00 0.00 0.00 94 1018.8
20260509221007 44 173 0.0 0.0 0.00 0.00 0.00 94 1018.6
20260509220457 45 173 0.0 0.0 0.00 0.00 0.00 94 1018.8
20260509215947 45 173 0.0 0.0 0.00 0.00 0.00 94 1018.6
20260509215516 45 173 0.0 0.0 0.00 0.00 0.00 93 1018.7
20260509215009 45 173 0.0 0.0 0.00 0.00 0.00 93 1018.9
20260509214417 45 173 0.0 0.0 0.00 0.00 0.00 93 1018.9